Location: The Saddle
(36.8333°N, 80.3417°W)
Time: 07:33:44
(UTC-04:00)

Vanguard 2 Rocket - Pass Details

Date: 31 January 2022
Orbit: 553 x 3323 km, 32.9° (Epoch: 23 May)

Event Time Altitude Azimuth Distance (km) Brightness Sun altitude
Exits shadow 01:08:55 21° 88° (E) 5,001 10.6 -69.1°
Drops below altitude 10° 01:13:35 10° 85° (E) 6,089 11.1 -68.7°
Sets 01:18:48 0° 83° (E) 7,260 11.7 -68.3°
